Time,TemperatureF,DewpointF,PressureIn,WindDirection,WindDirectionDegrees,WindSpeedMPH,WindSpeedGustMPH,Humidity,HourlyPrecipIn,Conditions,Clouds,dailyrainin,SoftwareType,DateUTC
2013-01-28 00:00:00,30.5,24.1,30.26,South,169,1.0,-999.0,77,0.00,,,0.01,Wunderground v.1.15,2013-01-28 05:00:00,
2013-01-28 00:01:00,30.5,24.1,30.26,South,169,1.0,-999.0,77,0.00,,,0.00,Wunderground v.1.15,2013-01-28 05:01:00,
2013-01-28 00:03:00,30.5,24.5,30.26,South,169,0.0,-999.0,78,0.00,,,0.00,Wunderground v.1.15,2013-01-28 05:03:00,
2013-01-28 00:04:00,30.5,24.5,30.26,South,169,0.0,-999.0,78,0.00,,,0.00,Wunderground v.1.15,2013-01-28 05:04:00,
2013-01-28 00:10:00,30.6,25.2,30.25,SSE,168,1.0,-999.0,80,0.00,,,0.00,Wunderground v.1.15,2013-01-28 05:10:00,
2013-01-28 00:17:00,30.6,25.5,30.24,SSE,165,2.0,-999.0,81,0.00,,,0.00,Wunderground v.1.15,2013-01-28 05:17:00,
2013-01-28 00:22:00,30.6,25.8,30.25,South,177,2.0,-999.0,82,0.00,,,0.00,Wunderground v.1.15,2013-01-28 05:22:00,
2013-01-28 00:28:00,30.5,26.0,30.24,South,173,3.0,-999.0,83,0.00,,,0.00,Wunderground v.1.15,2013-01-28 05:28:00,
2013-01-28 00:34:00,30.5,26.0,30.24,SSE,164,4.0,-999.0,83,0.00,,,0.00,Wunderground v.1.15,2013-01-28 05:34:00,
2013-01-28 00:40:00,30.4,25.9,30.23,SSE,163,5.0,-999.0,83,0.00,,,0.00,Wunderground v.1.15,2013-01-28 05:40:00,
2013-01-28 00:46:00,30.3,26.0,30.23,SSE,161,5.0,-999.0,84,0.00,,,0.00,Wunderground v.1.15,2013-01-28 05:46:00,
2013-01-28 00:52:00,30.4,26.1,30.24,South,176,3.0,-999.0,84,0.00,,,0.00,Wunderground v.1.15,2013-01-28 05:52:00,
2013-01-28 00:58:00,30.4,26.4,30.24,SSE,158,3.0,-999.0,85,0.00,,,0.00,Wunderground v.1.15,2013-01-28 05:58:00,
2013-01-28 01:03:00,30.4,26.4,30.24,South,169,2.0,-999.0,85,0.00,,,0.00,Wunderground v.1.15,2013-01-28 06:03:00,
2013-01-28 01:09:00,30.5,26.5,30.24,SSE,164,2.0,-999.0,85,0.00,,,0.00,Wunderground v.1.15,2013-01-28 06:09:00,
2013-01-28 01:15:00,30.5,26.8,30.24,SSE,164,1.0,-999.0,86,0.00,,,0.00,Wunderground v.1.15,2013-01-28 06:15:00,
2013-01-28 01:21:00,30.6,26.9,30.24,SSE,164,1.0,-999.0,86,0.00,,,0.00,Wunderground v.1.15,2013-01-28 06:21:00,
2013-01-28 01:27:00,30.7,27.3,30.23,SSE,157,2.0,-999.0,87,0.00,,,0.00,Wunderground v.1.15,2013-01-28 06:27:00,
2013-01-28 01:33:00,30.9,27.8,30.21,SSE,163,2.0,-999.0,88,0.00,,,0.00,Wunderground v.1.15,2013-01-28 06:33:00,
2013-01-28 01:39:00,30.9,27.8,30.21,SSE,147,3.0,-999.0,88,0.00,,,0.00,Wunderground v.1.15,2013-01-28 06:39:00,
2013-01-28 01:45:00,31.0,27.9,30.20,SSE,158,4.0,-999.0,88,0.00,,,0.00,Wunderground v.1.15,2013-01-28 06:45:00,
2013-01-28 01:51:00,31.1,28.2,30.20,SSE,168,3.0,-999.0,89,0.00,,,0.00,Wunderground v.1.15,2013-01-28 06:51:00,
2013-01-28 01:57:00,31.1,28.2,30.21,SSE,168,3.0,-999.0,89,0.00,,,0.00,Wunderground v.1.15,2013-01-28 06:57:00,
2013-01-28 02:02:00,31.2,28.3,30.20,SSE,157,4.0,-999.0,89,0.00,,,0.00,Wunderground v.1.15,2013-01-28 07:02:00,
2013-01-28 02:08:00,31.3,28.4,30.19,SSE,158,6.0,-999.0,89,0.00,,,0.00,Wunderground v.1.15,2013-01-28 07:08:00,
2013-01-28 02:14:00,31.3,28.7,30.19,South,169,6.0,-999.0,90,0.00,,,0.00,Wunderground v.1.15,2013-01-28 07:14:00,
2013-01-28 02:20:00,31.4,28.8,30.19,South,174,6.0,-999.0,90,0.00,,,0.00,Wunderground v.1.15,2013-01-28 07:20:00,
2013-01-28 02:26:00,31.4,28.8,30.19,SSE,157,5.0,-999.0,90,0.00,,,0.00,Wunderground v.1.15,2013-01-28 07:26:00,
2013-01-28 02:32:00,31.4,28.8,30.18,SSE,159,4.0,-999.0,90,0.00,,,0.00,Wunderground v.1.15,2013-01-28 07:32:00,
2013-01-28 02:38:00,31.5,28.9,30.18,South,174,4.0,-999.0,90,0.00,,,0.00,Wunderground v.1.15,2013-01-28 07:38:00,
2013-01-28 02:44:00,31.6,29.3,30.19,South,174,5.0,-999.0,91,0.00,,,0.00,Wunderground v.1.15,2013-01-28 07:44:00,
2013-01-28 02:50:00,31.6,29.3,30.20,SSE,165,4.0,-999.0,91,0.00,,,0.00,Wunderground v.1.15,2013-01-28 07:50:00,
2013-01-28 02:56:00,31.7,29.4,30.20,SSE,159,2.0,-999.0,91,0.00,,,0.00,Wunderground v.1.15,2013-01-28 07:56:00,
2013-01-28 03:02:00,31.8,29.5,30.20,SSE,159,0.0,-999.0,91,0.00,,,0.00,Wunderground v.1.15,2013-01-28 08:02:00,
2013-01-28 03:07:00,31.9,29.6,30.20,SSE,159,0.0,-999.0,91,0.00,,,0.00,Wunderground v.1.15,2013-01-28 08:07:00,
2013-01-28 03:13:00,32.0,29.9,30.19,SSE,159,0.0,-999.0,92,0.00,,,0.00,Wunderground v.1.15,2013-01-28 08:13:00,
2013-01-28 03:19:00,32.1,30.0,30.19,South,169,1.0,-999.0,92,0.00,,,0.00,Wunderground v.1.15,2013-01-28 08:19:00,
2013-01-28 03:25:00,32.1,30.0,30.18,SSE,164,2.0,-999.0,92,0.00,,,0.00,Wunderground v.1.15,2013-01-28 08:25:00,
2013-01-28 03:31:00,32.2,30.1,30.18,South,172,3.0,-999.0,92,0.00,,,0.00,Wunderground v.1.15,2013-01-28 08:31:00,
2013-01-28 03:37:00,32.3,30.2,30.17,South,172,4.0,-999.0,92,0.00,,,0.00,Wunderground v.1.15,2013-01-28 08:37:00,
2013-01-28 03:43:00,32.4,30.3,30.16,SSE,165,5.0,-999.0,92,0.00,,,0.00,Wunderground v.1.15,2013-01-28 08:43:00,
2013-01-28 03:49:00,32.4,30.3,30.17,South,175,4.0,-999.0,92,0.00,,,0.00,Wunderground v.1.15,2013-01-28 08:49:00,
2013-01-28 03:55:00,32.5,30.7,30.16,South,178,4.0,-999.0,93,0.00,,,0.00,Wunderground v.1.15,2013-01-28 08:55:00,
2013-01-28 04:00:00,32.5,30.7,30.16,South,174,4.0,-999.0,93,0.00,,,0.00,Wunderground v.1.15,2013-01-28 09:00:00,
2013-01-28 04:06:00,32.6,30.8,30.17,South,173,4.0,-999.0,93,0.00,,,0.00,Wunderground v.1.15,2013-01-28 09:06:00,
2013-01-28 04:11:00,32.7,30.9,30.16,South,178,4.0,-999.0,93,0.00,,,0.00,Wunderground v.1.15,2013-01-28 09:11:00,
2013-01-28 04:17:00,32.7,30.9,30.16,South,169,4.0,-999.0,93,0.00,,,0.00,Wunderground v.1.15,2013-01-28 09:17:00,
2013-01-28 04:22:00,32.8,31.0,30.16,SSE,165,3.0,-999.0,93,0.00,,,0.00,Wunderground v.1.15,2013-01-28 09:22:00,
2013-01-28 04:27:00,32.9,31.1,30.16,South,171,3.0,-999.0,93,0.00,,,0.00,Wunderground v.1.15,2013-01-28 09:27:00,
2013-01-28 04:33:00,32.9,31.1,30.15,South,169,3.0,-999.0,93,0.00,,,0.00,Wunderground v.1.15,2013-01-28 09:33:00,
2013-01-28 04:39:00,33.0,31.2,30.15,SSE,168,3.0,-999.0,93,0.00,,,0.00,Wunderground v.1.15,2013-01-28 09:39:00,
2013-01-28 04:44:00,33.0,31.2,30.14,South,172,2.0,-999.0,93,0.00,,,0.00,Wunderground v.1.15,2013-01-28 09:44:00,
2013-01-28 04:50:00,33.1,31.3,30.14,SSE,167,1.0,-999.0,93,0.00,,,0.00,Wunderground v.1.15,2013-01-28 09:50:00,
2013-01-28 04:56:00,33.2,31.4,30.13,South,174,2.0,-999.0,93,0.00,,,0.00,Wunderground v.1.15,2013-01-28 09:56:00,
2013-01-28 05:01:00,33.2,31.4,30.13,South,181,4.0,-999.0,93,0.00,,,0.00,Wunderground v.1.15,2013-01-28 10:01:00,
2013-01-28 05:07:00,33.3,31.5,30.13,South,188,4.0,-999.0,93,0.00,,,0.00,Wunderground v.1.15,2013-01-28 10:07:00,
2013-01-28 05:13:00,33.4,31.6,30.13,South,174,2.0,-999.0,93,0.00,,,0.00,Wunderground v.1.15,2013-01-28 10:13:00,
2013-01-28 05:18:00,33.4,31.6,30.12,South,173,1.0,-999.0,93,0.00,,,0.00,Wunderground v.1.15,2013-01-28 10:18:00,
2013-01-28 05:24:00,33.4,31.6,30.11,South,169,1.0,-999.0,93,0.00,,,0.00,Wunderground v.1.15,2013-01-28 10:24:00,
2013-01-28 05:30:00,33.5,31.7,30.10,South,173,2.0,-999.0,93,0.00,,,0.00,Wunderground v.1.15,2013-01-28 10:30:00,
2013-01-28 05:36:00,33.5,31.7,30.11,South,182,3.0,-999.0,93,0.00,,,0.00,Wunderground v.1.15,2013-01-28 10:36:00,
2013-01-28 05:42:00,33.7,31.9,30.10,South,170,2.0,-999.0,93,0.00,,,0.00,Wunderground v.1.15,2013-01-28 10:42:00,
2013-01-28 05:47:00,33.7,31.9,30.09,South,173,3.0,-999.0,93,0.00,,,0.00,Wunderground v.1.15,2013-01-28 10:47:00,
2013-01-28 05:53:00,33.8,32.0,30.11,SSW,195,3.0,-999.0,93,0.00,,,0.00,Wunderground v.1.15,2013-01-28 10:53:00,
2013-01-28 05:59:00,34.0,32.2,30.10,SSE,165,1.0,-999.0,93,0.00,,,0.00,Wunderground v.1.15,2013-01-28 10:59:00,
2013-01-28 06:05:00,34.1,32.3,30.11,South,189,1.0,-999.0,93,0.00,,,0.00,Wunderground v.1.15,2013-01-28 11:05:00,
2013-01-28 06:11:00,34.0,32.2,30.11,South,189,0.0,-999.0,93,0.00,,,0.00,Wunderground v.1.15,2013-01-28 11:11:00,
2013-01-28 06:17:00,34.0,32.2,30.10,SSE,165,1.0,-999.0,93,0.00,,,0.00,Wunderground v.1.15,2013-01-28 11:17:00,
2013-01-28 06:23:00,34.2,32.4,30.10,SSE,161,2.0,-999.0,93,0.00,,,0.00,Wunderground v.1.15,2013-01-28 11:23:00,
2013-01-28 06:29:00,34.3,32.8,30.10,SSE,161,1.0,-999.0,94,0.00,,,0.00,Wunderground v.1.15,2013-01-28 11:29:00,
2013-01-28 06:35:00,34.4,32.9,30.10,SSE,161,1.0,-999.0,94,0.00,,,0.00,Wunderground v.1.15,2013-01-28 11:35:00,
2013-01-28 06:41:00,34.4,32.9,30.10,SSE,161,1.0,-999.0,94,0.00,,,0.00,Wunderground v.1.15,2013-01-28 11:41:00,
2013-01-28 06:46:00,34.4,32.9,30.10,SSE,161,2.0,-999.0,94,0.00,,,0.00,Wunderground v.1.15,2013-01-28 11:46:00,
2013-01-28 06:52:00,34.6,33.1,30.10,SSE,161,2.0,-999.0,94,0.00,,,0.00,Wunderground v.1.15,2013-01-28 11:52:00,
2013-01-28 06:58:00,34.5,33.0,30.10,SSE,161,1.0,-999.0,94,0.00,,,0.00,Wunderground v.1.15,2013-01-28 11:58:00,
2013-01-28 07:03:00,34.7,32.9,30.09,South,169,1.0,-999.0,93,0.00,,,0.00,Wunderground v.1.15,2013-01-28 12:03:00,
2013-01-28 07:08:00,34.9,33.3,30.10,SSE,168,2.0,-999.0,94,0.00,,,0.00,Wunderground v.1.15,2013-01-28 12:08:00,
2013-01-28 07:14:00,35.1,33.5,30.09,South,184,2.0,-999.0,94,0.00,,,0.00,Wunderground v.1.15,2013-01-28 12:14:00,
2013-01-28 07:20:00,35.2,33.6,30.09,South,169,2.0,-999.0,94,0.00,,,0.00,Wunderground v.1.15,2013-01-28 12:20:00,
2013-01-28 07:26:00,35.3,33.7,30.09,SSE,162,2.0,-999.0,94,0.00,,,0.00,Wunderground v.1.15,2013-01-28 12:26:00,
2013-01-28 07:32:00,35.6,34.0,30.09,SSE,162,2.0,-999.0,94,0.00,,,0.00,Wunderground v.1.15,2013-01-28 12:32:00,
2013-01-28 07:37:00,35.7,34.1,30.09,SSW,200,2.0,-999.0,94,0.00,,,0.00,Wunderground v.1.15,2013-01-28 12:37:00,
2013-01-28 07:43:00,36.0,34.4,30.09,SSE,163,1.0,-999.0,94,0.00,,,0.00,Wunderground v.1.15,2013-01-28 12:43:00,
2013-01-28 07:49:00,35.8,34.2,30.08,SSE,163,2.0,-999.0,94,0.00,,,0.00,Wunderground v.1.15,2013-01-28 12:49:00,
2013-01-28 07:55:00,35.9,34.3,30.08,SSE,162,3.0,-999.0,94,0.00,,,0.00,Wunderground v.1.15,2013-01-28 12:55:00,
2013-01-28 08:01:00,36.0,34.4,30.08,South,182,2.0,-999.0,94,0.00,,,0.00,Wunderground v.1.15,2013-01-28 13:01:00,
2013-01-28 08:07:00,36.1,34.5,30.08,SSE,164,3.0,-999.0,94,0.00,,,0.00,Wunderground v.1.15,2013-01-28 13:07:00,
2013-01-28 08:13:00,36.3,34.7,30.08,South,186,3.0,-999.0,94,0.00,,,0.00,Wunderground v.1.15,2013-01-28 13:13:00,
2013-01-28 08:19:00,36.4,34.8,30.07,South,173,3.0,-999.0,94,0.00,,,0.00,Wunderground v.1.15,2013-01-28 13:19:00,
2013-01-28 08:24:00,36.4,34.8,30.07,South,173,3.0,-999.0,94,0.00,,,0.00,Wunderground v.1.15,2013-01-28 13:24:00,
2013-01-28 08:30:00,36.4,34.8,30.06,South,173,3.0,-999.0,94,0.00,,,0.00,Wunderground v.1.15,2013-01-28 13:30:00,
2013-01-28 08:36:00,36.6,35.0,30.06,South,184,3.0,-999.0,94,0.00,,,0.00,Wunderground v.1.15,2013-01-28 13:36:00,
2013-01-28 08:42:00,37.2,35.6,30.06,South,176,4.0,-999.0,94,0.00,,,0.01,Wunderground v.1.15,2013-01-28 13:42:00,
2013-01-28 08:48:00,37.3,35.7,30.06,SSE,156,4.0,-999.0,94,0.17,,,0.03,Wunderground v.1.15,2013-01-28 13:48:00,
2013-01-28 08:54:00,37.6,36.0,30.05,SSE,164,3.0,-999.0,94,0.51,,,0.06,Wunderground v.1.15,2013-01-28 13:54:00,
2013-01-28 09:00:00,38.0,36.4,30.05,SSE,159,4.0,-999.0,94,0.56,,,0.09,Wunderground v.1.15,2013-01-28 14:00:00,
2013-01-28 09:06:00,38.3,36.7,30.05,South,169,5.0,-999.0,94,1.04,,,0.16,Wunderground v.1.15,2013-01-28 14:06:00,
2013-01-28 09:12:00,38.4,36.8,30.05,SSE,155,4.0,-999.0,94,1.08,,,0.26,Wunderground v.1.15,2013-01-28 14:12:00,
2013-01-28 09:17:00,38.6,37.0,30.05,South,178,4.0,-999.0,94,0.23,,,0.31,Wunderground v.1.15,2013-01-28 14:17:00,
2013-01-28 09:23:00,38.6,37.0,30.05,South,186,4.0,-999.0,94,0.12,,,0.31,Wunderground v.1.15,2013-01-28 14:23:00,
2013-01-28 09:29:00,39.1,37.5,30.05,SSW,207,4.0,-999.0,94,0.10,,,0.32,Wunderground v.1.15,2013-01-28 14:29:00,
2013-01-28 09:35:00,39.6,38.0,30.05,South,175,5.0,-999.0,94,0.05,,,0.32,Wunderground v.1.15,2013-01-28 14:35:00,
2013-01-28 09:40:00,39.6,38.0,30.04,SSW,203,5.0,-999.0,94,0.05,,,0.33,Wunderground v.1.15,2013-01-28 14:40:00,
2013-01-28 09:46:00,39.5,37.9,30.04,South,187,5.0,-999.0,94,0.10,,,0.34,Wunderground v.1.15,2013-01-28 14:46:00,
2013-01-28 09:52:00,39.7,38.1,30.04,South,186,5.0,-999.0,94,0.06,,,0.34,Wunderground v.1.15,2013-01-28 14:52:00,
2013-01-28 09:58:00,39.7,38.1,30.04,South,175,5.0,-999.0,94,0.04,,,0.35,Wunderground v.1.15,2013-01-28 14:58:00,
2013-01-28 10:04:00,39.9,38.3,30.04,South,178,6.0,-999.0,94,0.08,,,0.36,Wunderground v.1.15,2013-01-28 15:04:00,
2013-01-28 10:10:00,40.2,38.6,30.04,SSW,205,6.0,-999.0,94,0.08,,,0.36,Wunderground v.1.15,2013-01-28 15:10:00,
2013-01-28 10:16:00,40.2,38.6,30.04,SSW,207,6.0,-999.0,94,0.15,,,0.38,Wunderground v.1.15,2013-01-28 15:16:00,
2013-01-28 10:22:00,40.2,38.3,30.04,South,171,6.0,-999.0,93,0.09,,,0.39,Wunderground v.1.15,2013-01-28 15:22:00,
2013-01-28 10:28:00,40.4,38.8,30.04,SSW,206,6.0,-999.0,94,0.12,,,0.40,Wunderground v.1.15,2013-01-28 15:28:00,
2013-01-28 10:34:00,40.5,38.6,30.04,SSW,202,6.0,-999.0,93,0.08,,,0.40,Wunderground v.1.15,2013-01-28 15:34:00,
2013-01-28 10:40:00,40.6,38.7,30.04,South,173,5.0,-999.0,93,0.05,,,0.40,Wunderground v.1.15,2013-01-28 15:40:00,
2013-01-28 10:46:00,40.7,38.8,30.04,SW,215,5.0,-999.0,93,0.00,,,0.40,Wunderground v.1.15,2013-01-28 15:46:00,
2013-01-28 10:52:00,40.9,39.0,30.04,South,181,5.0,-999.0,93,0.00,,,0.40,Wunderground v.1.15,2013-01-28 15:52:00,
2013-01-28 10:58:00,41.0,39.1,30.04,SSW,193,4.0,-999.0,93,0.00,,,0.40,Wunderground v.1.15,2013-01-28 15:58:00,
2013-01-28 11:03:00,41.0,39.1,30.04,SSW,196,3.0,-999.0,93,0.00,,,0.40,Wunderground v.1.15,2013-01-28 16:03:00,
2013-01-28 11:09:00,41.0,39.1,30.04,SW,217,3.0,-999.0,93,0.00,,,0.40,Wunderground v.1.15,2013-01-28 16:09:00,
2013-01-28 11:15:00,41.1,39.2,30.04,SW,217,4.0,-999.0,93,0.00,,,0.40,Wunderground v.1.15,2013-01-28 16:15:00,
2013-01-28 11:20:00,41.0,39.1,30.04,SSW,203,4.0,-999.0,93,0.00,,,0.41,Wunderground v.1.15,2013-01-28 16:20:00,
2013-01-28 11:26:00,41.2,39.3,30.03,SSW,209,5.0,-999.0,93,0.00,,,0.41,Wunderground v.1.15,2013-01-28 16:26:00,
2013-01-28 11:32:00,41.2,39.3,30.03,SSW,192,4.0,-999.0,93,0.00,,,0.41,Wunderground v.1.15,2013-01-28 16:32:00,
2013-01-28 11:38:00,41.3,39.4,30.03,SW,223,3.0,-999.0,93,0.00,,,0.41,Wunderground v.1.15,2013-01-28 16:38:00,
2013-01-28 11:44:00,41.3,39.4,30.03,SSW,202,2.0,-999.0,93,0.00,,,0.41,Wunderground v.1.15,2013-01-28 16:44:00,
2013-01-28 11:49:00,41.5,39.6,30.03,SSW,211,2.0,-999.0,93,0.00,,,0.41,Wunderground v.1.15,2013-01-28 16:49:00,
2013-01-28 11:55:00,41.6,39.7,30.02,South,188,4.0,-999.0,93,0.00,,,0.41,Wunderground v.1.15,2013-01-28 16:55:00,
2013-01-28 12:01:00,41.8,39.9,30.02,SW,223,5.0,-999.0,93,0.00,,,0.41,Wunderground v.1.15,2013-01-28 17:01:00,
2013-01-28 12:07:00,42.0,40.1,30.02,South,170,5.0,-999.0,93,0.00,,,0.41,Wunderground v.1.15,2013-01-28 17:07:00,
2013-01-28 12:13:00,42.2,40.3,30.01,South,187,4.0,-999.0,93,0.00,,,0.41,Wunderground v.1.15,2013-01-28 17:13:00,
2013-01-28 12:19:00,42.3,40.4,30.01,South,178,3.0,-999.0,93,0.00,,,0.41,Wunderground v.1.15,2013-01-28 17:19:00,
2013-01-28 12:25:00,42.6,40.7,30.01,SSW,211,3.0,-999.0,93,0.00,,,0.41,Wunderground v.1.15,2013-01-28 17:25:00,
2013-01-28 12:31:00,43.0,41.1,30.01,South,170,4.0,-999.0,93,0.00,,,0.41,Wunderground v.1.15,2013-01-28 17:31:00,
2013-01-28 12:37:00,43.1,41.2,30.00,WSW,242,5.0,-999.0,93,0.00,,,0.41,Wunderground v.1.15,2013-01-28 17:37:00,
2013-01-28 12:43:00,43.3,41.4,30.00,SW,223,5.0,-999.0,93,0.00,,,0.41,Wunderground v.1.15,2013-01-28 17:43:00,
2013-01-28 12:49:00,43.6,41.7,30.00,SW,232,5.0,-999.0,93,0.00,,,0.41,Wunderground v.1.15,2013-01-28 17:49:00,
2013-01-28 12:54:00,43.8,41.6,30.00,SW,235,5.0,-999.0,92,0.00,,,0.41,Wunderground v.1.15,2013-01-28 17:54:00,
2013-01-28 13:00:00,44.1,41.9,29.99,SW,220,5.0,-999.0,92,0.00,,,0.41,Wunderground v.1.15,2013-01-28 18:00:00,
2013-01-28 13:06:00,44.3,42.4,29.99,SSW,204,3.0,-999.0,93,0.00,,,0.41,Wunderground v.1.15,2013-01-28 18:06:00,
2013-01-28 13:12:00,44.4,42.2,29.99,SSW,196,3.0,-999.0,92,0.00,,,0.41,Wunderground v.1.15,2013-01-28 18:12:00,
2013-01-28 13:18:00,44.6,42.4,29.99,SSW,200,5.0,-999.0,92,0.00,,,0.41,Wunderground v.1.15,2013-01-28 18:18:00,
2013-01-28 13:24:00,44.7,42.5,29.98,SSW,196,5.0,-999.0,92,0.00,,,0.41,Wunderground v.1.15,2013-01-28 18:24:00,
2013-01-28 13:30:00,44.9,42.7,29.98,SSW,207,4.0,-999.0,92,0.00,,,0.41,Wunderground v.1.15,2013-01-28 18:30:00,
2013-01-28 13:36:00,45.1,42.9,29.98,SW,231,3.0,-999.0,92,0.00,,,0.41,Wunderground v.1.15,2013-01-28 18:36:00,
2013-01-28 13:41:00,45.2,43.0,29.98,SSW,200,3.0,-999.0,92,0.00,,,0.41,Wunderground v.1.15,2013-01-28 18:41:00,
2013-01-28 13:47:00,45.4,43.2,29.97,SW,223,4.0,-999.0,92,0.00,,,0.41,Wunderground v.1.15,2013-01-28 18:47:00,
2013-01-28 13:53:00,45.6,43.4,29.97,SW,216,5.0,-999.0,92,0.00,,,0.41,Wunderground v.1.15,2013-01-28 18:53:00,
2013-01-28 13:59:00,45.7,43.5,29.97,WSW,249,5.0,-999.0,92,0.00,,,0.41,Wunderground v.1.15,2013-01-28 18:59:00,
2013-01-28 14:05:00,45.9,43.7,29.97,West,259,5.0,-999.0,92,0.00,,,0.41,Wunderground v.1.15,2013-01-28 19:05:00,
2013-01-28 14:11:00,46.1,43.9,29.97,SSW,213,5.0,-999.0,92,0.00,,,0.41,Wunderground v.1.15,2013-01-28 19:11:00,
2013-01-28 14:17:00,46.2,44.0,29.96,SSW,212,5.0,-999.0,92,0.00,,,0.41,Wunderground v.1.15,2013-01-28 19:17:00,
2013-01-28 14:22:00,46.3,44.1,29.96,SW,221,6.0,-999.0,92,0.00,,,0.41,Wunderground v.1.15,2013-01-28 19:22:00,
2013-01-28 14:28:00,46.4,44.2,29.96,SW,234,6.0,-999.0,92,0.00,,,0.41,Wunderground v.1.15,2013-01-28 19:28:00,
2013-01-28 14:33:00,46.6,44.4,29.96,SW,215,6.0,-999.0,92,0.00,,,0.41,Wunderground v.1.15,2013-01-28 19:33:00,
2013-01-28 14:40:00,46.6,44.4,29.96,SSW,192,4.0,-999.0,92,0.00,,,0.41,Wunderground v.1.15,2013-01-28 19:40:00,
2013-01-28 14:45:00,46.7,44.5,29.96,SW,217,4.0,-999.0,92,0.00,,,0.41,Wunderground v.1.15,2013-01-28 19:45:00,
2013-01-28 14:51:00,46.7,44.5,29.96,WSW,251,5.0,-999.0,92,0.00,,,0.41,Wunderground v.1.15,2013-01-28 19:51:00,
2013-01-28 14:57:00,46.8,44.6,29.96,SW,236,6.0,-999.0,92,0.00,,,0.41,Wunderground v.1.15,2013-01-28 19:57:00,
2013-01-28 15:02:00,46.8,44.6,29.96,SW,216,5.0,-999.0,92,0.00,,,0.41,Wunderground v.1.15,2013-01-28 20:02:00,
2013-01-28 15:08:00,46.9,44.7,29.96,SW,223,5.0,-999.0,92,0.00,,,0.41,Wunderground v.1.15,2013-01-28 20:08:00,
2013-01-28 15:14:00,46.9,44.7,29.96,SSW,199,4.0,-999.0,92,0.00,,,0.41,Wunderground v.1.15,2013-01-28 20:14:00,
2013-01-28 15:20:00,47.0,44.8,29.96,SSW,205,4.0,-999.0,92,0.00,,,0.41,Wunderground v.1.15,2013-01-28 20:20:00,
2013-01-28 15:26:00,47.1,44.9,29.96,WSW,254,4.0,-999.0,92,0.00,,,0.41,Wunderground v.1.15,2013-01-28 20:26:00,
2013-01-28 15:31:00,47.2,45.0,29.96,WSW,252,3.0,-999.0,92,0.00,,,0.41,Wunderground v.1.15,2013-01-28 20:31:00,
2013-01-28 15:37:00,47.2,45.0,29.96,WNW,282,2.0,-999.0,92,0.00,,,0.41,Wunderground v.1.15,2013-01-28 20:37:00,
2013-01-28 15:43:00,47.3,45.4,29.96,SW,225,3.0,-999.0,93,0.00,,,0.41,Wunderground v.1.15,2013-01-28 20:43:00,
2013-01-28 15:49:00,47.5,45.6,29.96,WSW,247,3.0,-999.0,93,0.00,,,0.41,Wunderground v.1.15,2013-01-28 20:49:00,
2013-01-28 15:55:00,47.6,45.4,29.96,SSW,202,3.0,-999.0,92,0.00,,,0.41,Wunderground v.1.15,2013-01-28 20:55:00,
2013-01-28 16:00:00,47.7,45.5,29.96,WSW,249,3.0,-999.0,92,0.00,,,0.41,Wunderground v.1.15,2013-01-28 21:00:00,
2013-01-28 16:06:00,47.9,45.7,29.96,SSW,203,4.0,-999.0,92,0.00,,,0.41,Wunderground v.1.15,2013-01-28 21:06:00,
2013-01-28 16:12:00,47.9,46.0,29.96,South,171,3.0,-999.0,93,0.00,,,0.41,Wunderground v.1.15,2013-01-28 21:12:00,
2013-01-28 16:18:00,48.0,46.1,29.96,SW,232,3.0,-999.0,93,0.00,,,0.41,Wunderground v.1.15,2013-01-28 21:18:00,
2013-01-28 16:24:00,48.1,46.2,29.96,SW,223,4.0,-999.0,93,0.00,,,0.41,Wunderground v.1.15,2013-01-28 21:24:00,
2013-01-28 16:30:00,48.2,46.3,29.96,SW,222,4.0,-999.0,93,0.00,,,0.41,Wunderground v.1.15,2013-01-28 21:30:00,
2013-01-28 16:36:00,48.3,46.1,29.96,SW,217,4.0,-999.0,92,0.00,,,0.41,Wunderground v.1.15,2013-01-28 21:36:00,
2013-01-28 16:42:00,48.3,46.1,29.96,WSW,254,3.0,-999.0,92,0.00,,,0.41,Wunderground v.1.15,2013-01-28 21:42:00,
2013-01-28 16:48:00,48.3,46.4,29.96,SSW,198,3.0,-999.0,93,0.00,,,0.41,Wunderground v.1.15,2013-01-28 21:48:00,
2013-01-28 16:54:00,48.3,46.4,29.96,SW,229,4.0,-999.0,93,0.00,,,0.41,Wunderground v.1.15,2013-01-28 21:54:00,
2013-01-28 16:59:00,48.5,46.6,29.96,SSW,211,4.0,-999.0,93,0.00,,,0.41,Wunderground v.1.15,2013-01-28 21:59:00,
2013-01-28 17:05:00,48.7,46.8,29.96,SSW,198,5.0,-999.0,93,0.00,,,0.41,Wunderground v.1.15,2013-01-28 22:05:00,
2013-01-28 17:11:00,48.7,46.8,29.96,SSW,209,4.0,-999.0,93,0.00,,,0.41,Wunderground v.1.15,2013-01-28 22:11:00,
2013-01-28 17:17:00,48.9,47.0,29.96,SW,234,4.0,-999.0,93,0.00,,,0.41,Wunderground v.1.15,2013-01-28 22:17:00,
2013-01-28 17:23:00,48.9,47.0,29.97,SSW,193,3.0,-999.0,93,0.00,,,0.41,Wunderground v.1.15,2013-01-28 22:23:00,
2013-01-28 17:29:00,49.0,47.1,29.97,SSW,193,2.0,-999.0,93,0.00,,,0.41,Wunderground v.1.15,2013-01-28 22:29:00,
2013-01-28 17:35:00,49.2,47.3,29.97,WSW,252,3.0,-999.0,93,0.00,,,0.41,Wunderground v.1.15,2013-01-28 22:35:00,
2013-01-28 17:40:00,49.2,47.3,29.97,West,279,3.0,-999.0,93,0.00,,,0.41,Wunderground v.1.15,2013-01-28 22:40:00,
2013-01-28 17:46:00,49.3,47.4,29.97,WSW,239,3.0,-999.0,93,0.00,,,0.41,Wunderground v.1.15,2013-01-28 22:46:00,
2013-01-28 17:52:00,49.4,47.5,29.97,SW,233,5.0,-999.0,93,0.00,,,0.41,Wunderground v.1.15,2013-01-28 22:52:00,
2013-01-28 17:58:00,49.3,47.4,29.97,SW,236,4.0,-999.0,93,0.00,,,0.41,Wunderground v.1.15,2013-01-28 22:58:00,
2013-01-28 18:03:00,49.3,47.4,29.97,SSW,210,3.0,-999.0,93,0.00,,,0.41,Wunderground v.1.15,2013-01-28 23:03:00,
2013-01-28 18:09:00,49.3,47.4,29.98,SW,223,2.0,-999.0,93,0.00,,,0.41,Wunderground v.1.15,2013-01-28 23:09:00,
2013-01-28 18:15:00,49.2,47.3,29.98,WSW,238,3.0,-999.0,93,0.00,,,0.41,Wunderground v.1.15,2013-01-28 23:15:00,
2013-01-28 18:21:00,49.2,47.3,29.98,SW,229,3.0,-999.0,93,0.00,,,0.41,Wunderground v.1.15,2013-01-28 23:21:00,
2013-01-28 18:27:00,49.3,47.4,29.97,SW,220,3.0,-999.0,93,0.00,,,0.41,Wunderground v.1.15,2013-01-28 23:27:00,
2013-01-28 18:33:00,49.3,47.4,29.98,SSW,200,3.0,-999.0,93,0.00,,,0.41,Wunderground v.1.15,2013-01-28 23:33:00,
2013-01-28 18:39:00,49.4,47.5,29.98,SW,231,4.0,-999.0,93,0.00,,,0.41,Wunderground v.1.15,2013-01-28 23:39:00,
2013-01-28 18:44:00,49.6,47.9,29.98,SSW,207,5.0,-999.0,94,0.00,,,0.41,Wunderground v.1.15,2013-01-28 23:44:00,
2013-01-28 18:50:00,49.6,47.9,29.99,SW,236,4.0,-999.0,94,0.00,,,0.41,Wunderground v.1.15,2013-01-28 23:50:00,
2013-01-28 18:56:00,49.7,48.0,29.99,SW,216,4.0,-999.0,94,0.00,,,0.41,Wunderground v.1.15,2013-01-28 23:56:00,
2013-01-28 19:02:00,49.7,48.0,29.98,WSW,244,3.0,-999.0,94,0.00,,,0.41,Wunderground v.1.15,2013-01-29 00:02:00,
2013-01-28 19:08:00,49.7,48.0,29.98,WSW,237,3.0,-999.0,94,0.00,,,0.41,Wunderground v.1.15,2013-01-29 00:08:00,
2013-01-28 19:14:00,49.8,48.1,29.98,SW,222,3.0,-999.0,94,0.00,,,0.41,Wunderground v.1.15,2013-01-29 00:14:00,
2013-01-28 19:20:00,49.9,48.2,29.98,WSW,250,4.0,-999.0,94,0.00,,,0.41,Wunderground v.1.15,2013-01-29 00:20:00,
2013-01-28 19:25:00,49.9,48.2,29.99,West,276,4.0,-999.0,94,0.00,,,0.41,Wunderground v.1.15,2013-01-29 00:25:00,
2013-01-28 19:31:00,49.9,48.2,29.99,West,272,3.0,-999.0,94,0.00,,,0.41,Wunderground v.1.15,2013-01-29 00:31:00,
2013-01-28 19:37:00,49.9,48.2,29.99,SW,226,3.0,-999.0,94,0.00,,,0.41,Wunderground v.1.15,2013-01-29 00:37:00,
2013-01-28 19:43:00,50.0,48.3,29.99,SW,229,4.0,-999.0,94,0.00,,,0.41,Wunderground v.1.15,2013-01-29 00:43:00,
2013-01-28 19:49:00,50.0,48.3,29.99,SW,228,2.0,-999.0,94,0.00,,,0.41,Wunderground v.1.15,2013-01-29 00:49:00,
2013-01-28 19:55:00,50.0,48.3,29.99,SW,232,2.0,-999.0,94,0.00,,,0.41,Wunderground v.1.15,2013-01-29 00:55:00,
2013-01-28 20:01:00,49.9,48.2,29.99,West,262,2.0,-999.0,94,0.00,,,0.41,Wunderground v.1.15,2013-01-29 01:01:00,
2013-01-28 20:07:00,49.9,48.2,29.99,WSW,244,1.0,-999.0,94,0.00,,,0.41,Wunderground v.1.15,2013-01-29 01:07:00,
2013-01-28 20:12:00,49.9,48.2,29.99,SW,220,1.0,-999.0,94,0.00,,,0.41,Wunderground v.1.15,2013-01-29 01:12:00,
2013-01-28 20:18:00,49.9,48.2,29.99,WNW,288,1.0,-999.0,94,0.00,,,0.41,Wunderground v.1.15,2013-01-29 01:18:00,
2013-01-28 20:24:00,50.0,48.3,29.99,SW,228,1.0,-999.0,94,0.00,,,0.41,Wunderground v.1.15,2013-01-29 01:24:00,
2013-01-28 20:30:00,50.0,48.3,29.99,WSW,244,1.0,-999.0,94,0.00,,,0.41,Wunderground v.1.15,2013-01-29 01:30:00,
2013-01-28 20:36:00,50.1,48.4,29.99,West,267,1.0,-999.0,94,0.00,,,0.41,Wunderground v.1.15,2013-01-29 01:36:00,
2013-01-28 20:42:00,50.0,48.3,30.00,West,267,1.0,-999.0,94,0.00,,,0.41,Wunderground v.1.15,2013-01-29 01:42:00,
2013-01-28 20:48:00,50.0,48.3,30.00,West,277,0.0,-999.0,94,0.00,,,0.41,Wunderground v.1.15,2013-01-29 01:48:00,
2013-01-28 20:54:00,50.0,48.3,30.00,West,271,0.0,-999.0,94,0.00,,,0.41,Wunderground v.1.15,2013-01-29 01:54:00,
2013-01-28 20:59:00,49.9,48.2,30.00,West,270,0.0,-999.0,94,0.00,,,0.41,Wunderground v.1.15,2013-01-29 01:59:00,
2013-01-28 21:05:00,49.9,48.2,30.00,West,271,0.0,-999.0,94,0.00,,,0.41,Wunderground v.1.15,2013-01-29 02:05:00,
2013-01-28 21:11:00,49.7,48.0,29.99,West,270,0.0,-999.0,94,0.00,,,0.41,Wunderground v.1.15,2013-01-29 02:11:00,
2013-01-28 21:17:00,49.6,47.9,30.00,West,270,0.0,-999.0,94,0.00,,,0.41,Wunderground v.1.15,2013-01-29 02:17:00,
2013-01-28 21:23:00,49.4,47.7,29.99,West,269,0.0,-999.0,94,0.00,,,0.41,Wunderground v.1.15,2013-01-29 02:23:00,
2013-01-28 21:29:00,49.4,47.7,30.00,West,269,0.0,-999.0,94,0.00,,,0.41,Wunderground v.1.15,2013-01-29 02:29:00,
2013-01-28 21:35:00,49.6,47.9,30.00,SW,234,1.0,-999.0,94,0.00,,,0.41,Wunderground v.1.15,2013-01-29 02:35:00,
2013-01-28 21:41:00,49.5,47.8,30.00,SSW,199,1.0,-999.0,94,0.00,,,0.41,Wunderground v.1.15,2013-01-29 02:41:00,
2013-01-28 21:47:00,49.4,47.7,30.00,SSW,199,0.0,-999.0,94,0.00,,,0.41,Wunderground v.1.15,2013-01-29 02:47:00,
2013-01-28 21:52:00,49.4,47.7,30.00,SSW,200,0.0,-999.0,94,0.00,,,0.41,Wunderground v.1.15,2013-01-29 02:52:00,
2013-01-28 21:58:00,49.5,47.8,30.00,SSE,165,1.0,-999.0,94,0.00,,,0.41,Wunderground v.1.15,2013-01-29 02:58:00,
2013-01-28 22:04:00,49.4,47.7,30.00,SSE,165,0.0,-999.0,94,0.00,,,0.41,Wunderground v.1.15,2013-01-29 03:04:00,
2013-01-28 22:10:00,48.9,47.2,30.00,SSE,165,0.0,-999.0,94,0.00,,,0.41,Wunderground v.1.15,2013-01-29 03:10:00,
2013-01-28 22:16:00,48.8,47.2,30.00,SSE,165,0.0,-999.0,94,0.00,,,0.41,Wunderground v.1.15,2013-01-29 03:16:00,
2013-01-28 22:22:00,49.0,47.3,30.00,SSE,165,0.0,-999.0,94,0.00,,,0.41,Wunderground v.1.15,2013-01-29 03:22:00,
2013-01-28 22:28:00,49.0,47.3,30.00,SSW,201,0.0,-999.0,94,0.00,,,0.41,Wunderground v.1.15,2013-01-29 03:28:00,
2013-01-28 22:34:00,49.2,47.5,30.00,SSW,202,0.0,-999.0,94,0.00,,,0.41,Wunderground v.1.15,2013-01-29 03:34:00,
2013-01-28 22:40:00,49.3,47.6,30.00,SSW,193,0.0,-999.0,94,0.00,,,0.42,Wunderground v.1.15,2013-01-29 03:40:00,
2013-01-28 22:46:00,49.2,47.5,30.00,SSW,193,0.0,-999.0,94,0.00,,,0.42,Wunderground v.1.15,2013-01-29 03:46:00,
2013-01-28 22:51:00,49.1,47.4,30.00,SSW,193,0.0,-999.0,94,0.00,,,0.42,Wunderground v.1.15,2013-01-29 03:51:00,
2013-01-28 22:57:00,49.0,47.3,30.00,SSW,193,0.0,-999.0,94,0.00,,,0.42,Wunderground v.1.15,2013-01-29 03:57:00,
2013-01-28 23:03:00,49.2,47.5,30.01,SSW,193,0.0,-999.0,94,0.00,,,0.42,Wunderground v.1.15,2013-01-29 04:03:00,
2013-01-28 23:08:00,49.4,47.7,30.00,SSW,193,0.0,-999.0,94,0.00,,,0.42,Wunderground v.1.15,2013-01-29 04:08:00,
2013-01-28 23:14:00,49.4,47.7,30.00,SSW,193,0.0,-999.0,94,0.00,,,0.42,Wunderground v.1.15,2013-01-29 04:14:00,
2013-01-28 23:20:00,49.5,47.8,30.00,SSW,193,0.0,-999.0,94,0.00,,,0.42,Wunderground v.1.15,2013-01-29 04:20:00,
2013-01-28 23:26:00,49.8,48.1,30.01,SW,222,1.0,-999.0,94,0.00,,,0.42,Wunderground v.1.15,2013-01-29 04:26:00,
2013-01-28 23:32:00,49.9,48.2,30.00,SW,222,1.0,-999.0,94,0.00,,,0.43,Wunderground v.1.15,2013-01-29 04:32:00,
2013-01-28 23:38:00,49.8,48.1,30.01,SW,222,0.0,-999.0,94,0.00,,,0.43,Wunderground v.1.15,2013-01-29 04:38:00,
2013-01-28 23:44:00,49.9,48.2,30.01,SW,222,1.0,-999.0,94,0.00,,,0.43,Wunderground v.1.15,2013-01-29 04:44:00,
2013-01-28 23:50:00,49.9,48.2,30.01,SW,222,0.0,-999.0,94,0.00,,,0.43,Wunderground v.1.15,2013-01-29 04:50:00,
2013-01-28 23:56:00,49.7,48.0,30.01,SSW,193,0.0,-999.0,94,0.00,,,0.43,Wunderground v.1.15,2013-01-29 04:56:00,